�����͌���@�\�w���ɂ��Y���u�C�̈ړ���,,,,,,,,
�@,Time,Lat.,,Long.,,Direction,Speed,
Date(yy/mm/dd),(hh:mm),(deg),(min),(deg),(min),(deg),(m/s),(knots)
2004/8/30,9:05,36,47.694 ,137,4.170 ,,,
2004/8/30,9:10,36,47.706 ,137,4.218 ,84.9 ,0.32 ,0.62 
2004/8/30,9:15,36,47.724 ,137,4.272 ,79.5 ,0.36 ,0.70 
2004/8/30,9:20,36,47.730 ,137,4.302 ,92.5 ,0.20 ,0.40 
2004/8/30,9:25,36,47.742 ,137,4.326 ,83.8 ,0.15 ,0.29 
2004/8/30,9:30,36,47.754 ,137,4.356 ,85.1 ,0.19 ,0.36 
2004/8/30,9:35,36,47.766 ,137,4.386 ,77.6 ,0.20 ,0.39 
2004/8/30,9:40,36,47.760 ,137,4.428 ,104.0 ,0.28 ,0.54 
2004/8/30,9:45,36,47.766 ,137,4.446 ,90.6 ,0.13 ,0.25 
2004/8/30,9:50,36,47.778 ,137,4.464 ,74.3 ,0.13 ,0.26 
2004/8/30,9:55,36,47.772 ,137,4.488 ,114.7 ,0.18 ,0.35 
2004/8/30,10:00,36,47.772 ,137,4.500 ,113.1 ,0.10 ,0.19 
2004/8/30,10:05,36,47.766 ,137,4.518 ,129.7 ,0.19 ,0.37 
2004/8/30,10:10,36,47.766 ,137,4.530 ,127.7 ,0.14 ,0.27 
2004/8/30,10:15,36,47.772 ,137,4.548 ,97.1 ,0.13 ,0.26 
2004/8/30,10:25,36,47.754 ,137,4.590 ,122.8 ,0.17 ,0.34 
2004/8/30,10:35,36,47.748 ,137,4.626 ,114.1 ,0.14 ,0.27 
2004/8/30,10:40,36,47.748 ,137,4.662 ,99.1 ,0.24 ,0.47 


�A,Time,Lat.,,Long.,,Direction,Speed,
Date(yy/mm/dd),(hh:mm),(deg),(min),(deg),(min),(deg),(m/s),(knots)
2004/8/30,11:40,36,47.724 ,137,4.152 ,,,
2004/8/30,11:45,36,47.742 ,137,4.176 ,61.7 ,0.23 ,0.46 
2004/8/30,11:50,36,47.766 ,137,4.188 ,41.7 ,0.20 ,0.39 
2004/8/30,11:55,36,47.796 ,137,4.212 ,48.1 ,0.28 ,0.54 
2004/8/30,12:00,36,47.802 ,137,4.224 ,65.0 ,0.13 ,0.26 
2004/8/30,12:05,36,47.820 ,137,4.248 ,56.2 ,0.23 ,0.45 
2004/8/30,12:10,36,47.826 ,137,4.260 ,65.0 ,0.13 ,0.26 
2004/8/30,12:15,36,47.832 ,137,4.266 ,56.0 ,0.10 ,0.19 
2004/8/30,12:20,36,47.850 ,137,4.272 ,32.5 ,0.15 ,0.30 
2004/8/30,12:25,36,47.862 ,137,4.266 ,5.5 ,0.09 ,0.18 
2004/8/30,12:35,36,47.874 ,137,4.266 ,39.3 ,0.07 ,0.14 
2004/8/30,12:40,36,47.886 ,137,4.260 ,5.5 ,0.09 ,0.18 
2004/8/30,12:45,36,47.898 ,137,4.260 ,26.3 ,0.10 ,0.20 
2004/8/30,12:50,36,47.928 ,137,4.248 ,352.2 ,0.21 ,0.40 
2004/8/30,12:55,36,47.946 ,137,4.254 ,32.5 ,0.15 ,0.30 
2004/8/30,13:00,36,47.958 ,137,4.242 ,354.0 ,0.07 ,0.14 
2004/8/30,13:05,36,47.964 ,137,4.218 ,294.4 ,0.09 ,0.17 
2004/8/30,13:10,36,47.976 ,137,4.206 ,354.0 ,0.07 ,0.14 
2004/8/30,13:20,36,47.982 ,137,4.200 ,68.8 ,0.05 ,0.10 
2004/8/30,13:25,36,47.988 ,137,4.188 ,348.2 ,0.04 ,0.07 
2004/8/30,13:30,36,47.982 ,137,4.170 ,230.4 ,0.06 ,0.11 
2004/8/30,13:40,36,47.970 ,137,4.164 ,127.8 ,0.06 ,0.12 
2004/8/30,13:45,36,47.964 ,137,4.152 ,166.6 ,0.04 ,0.07 
2004/8/30,13:50,36,47.958 ,137,4.140 ,166.6 ,0.04 ,0.07 
2004/8/30,13:55,36,47.946 ,137,4.128 ,155.5 ,0.08 ,0.16 
2004/8/30,14:00,36,47.940 ,137,4.128 ,109.0 ,0.11 ,0.22 
2004/8/30,14:05,36,47.928 ,137,4.110 ,182.6 ,0.07 ,0.14 
2004/8/30,14:10,36,47.922 ,137,4.092 ,185.1 ,0.04 ,0.07 


�B,Time,Lat.,,Long.,,Direction,Speed,
Date(yy/mm/dd),(hh:mm),(deg),(min),(deg),(min),(deg),(m/s),(knots)
2004/8/30,9:05,36,47.634 ,137,4.272 ,,,
2004/8/30,9:15,36,47.628 ,137,4.332 ,107.5 ,0.21 ,0.42 
2004/8/30,9:25,36,47.640 ,137,4.410 ,95.0 ,0.24 ,0.47 
2004/8/30,9:30,36,47.640 ,137,4.446 ,104.6 ,0.23 ,0.45 
2004/8/30,9:35,36,47.640 ,137,4.476 ,98.8 ,0.20 ,0.39 
2004/8/30,9:40,36,47.652 ,137,4.494 ,70.7 ,0.13 ,0.26 
2004/8/30,9:45,36,47.658 ,137,4.506 ,90.8 ,0.09 ,0.17 
2004/8/30,9:50,36,47.658 ,137,4.542 ,99.1 ,0.24 ,0.47 
2004/8/30,9:55,36,47.664 ,137,4.560 ,90.6 ,0.13 ,0.25 
2004/8/30,10:05,36,47.670 ,137,4.602 ,111.8 ,0.18 ,0.34 
2004/8/30,10:10,36,47.676 ,137,4.620 ,107.9 ,0.15 ,0.30 
2004/8/30,10:15,36,47.694 ,137,4.638 ,66.7 ,0.15 ,0.28 
2004/8/30,10:20,36,47.694 ,137,4.662 ,107.5 ,0.18 ,0.35 
2004/8/30,10:25,36,47.706 ,137,4.680 ,74.3 ,0.13 ,0.26 
2004/8/30,10:30,36,47.718 ,137,4.704 ,77.7 ,0.17 ,0.33 
2004/8/30,10:35,36,47.718 ,137,4.734 ,100.8 ,0.20 ,0.40 
2004/8/30,10:45,36,47.748 ,137,4.794 ,83.7 ,0.22 ,0.42 
2004/8/30,10:50,36,47.754 ,137,4.824 ,98.5 ,0.22 ,0.42 
2004/8/30,10:55,36,47.766 ,137,4.854 ,71.9 ,0.24 ,0.46 
2004/8/30,11:00,36,47.778 ,137,4.872 ,64.1 ,0.17 ,0.33 
2004/8/30,11:05,36,47.778 ,137,4.902 ,90.0 ,0.23 ,0.46 
2004/8/30,11:10,36,47.790 ,137,4.926 ,69.5 ,0.21 ,0.41 
2004/8/30,11:20,36,47.796 ,137,4.974 ,84.4 ,0.19 ,0.37 
2004/8/30,11:25,36,47.802 ,137,4.992 ,76.4 ,0.16 ,0.31 


�C,Time,Lat.,,Long.,,Direction,Speed,
Date(yy/mm/dd),(hh:mm),(deg),(min),(deg),(min),(deg),(m/s),(knots)
2004/8/30,12:30,36,47.742 ,137,4.098 ,,,
2004/8/30,12:35,36,47.748 ,137,4.116 ,70.4 ,0.17 ,0.32 
2004/8/30,12:40,36,47.754 ,137,4.128 ,65.0 ,0.13 ,0.26 
2004/8/30,12:45,36,47.760 ,137,4.170 ,79.6 ,0.31 ,0.60 
2004/8/30,12:50,36,47.796 ,137,4.230 ,59.9 ,0.48 ,0.94 
2004/8/30,12:55,36,47.808 ,137,4.242 ,52.2 ,0.15 ,0.30 
2004/8/30,13:10,36,47.826 ,137,4.260 ,70.3 ,0.11 ,0.21 
2004/8/30,13:15,36,47.838 ,137,4.290 ,73.6 ,0.26 ,0.51 
2004/8/30,13:20,36,47.856 ,137,4.308 ,57.9 ,0.21 ,0.41 
2004/8/30,13:25,36,47.886 ,137,4.320 ,37.2 ,0.23 ,0.45 
2004/8/30,13:35,36,47.904 ,137,4.332 ,61.7 ,0.12 ,0.23 
2004/8/30,13:45,36,47.916 ,137,4.338 ,69.9 ,0.11 ,0.21 
2004/8/30,13:55,36,47.940 ,137,4.314 ,24.5 ,0.08 ,0.16 
2004/8/30,14:00,36,47.946 ,137,4.308 ,62.4 ,0.08 ,0.16 
2004/8/30,14:05,36,47.958 ,137,4.278 ,313.7 ,0.11 ,0.21 
2004/8/30,14:10,36,47.970 ,137,4.254 ,331.4 ,0.08 ,0.16 
